Date,TemperatureHighF,TemperatureAvgF,TemperatureLowF,DewpointHighF,DewpointAvgF,DewpointLowF,HumidityHigh,HumidityAvg,HumidityLow,PressureMaxIn,PressureMinIn,WindSpeedMaxMPH,WindSpeedAvgMPH,GustSpeedMaxMPH,PrecipitationSumIn
2013-2-1,8.4,3.7,-1.9,5.6,-2.9,-7.2,88,74,63,30.36,30.16,15,5,20,0.00
2013-2-2,15.9,10.4,5.3,9.3,4.6,-0.9,90,78,61,30.21,30.07,6,1,8,0.00
2013-2-3,20.2,13.3,5.4,11.8,6.9,-0.2,86,75,59,30.09,29.99,9,3,16,0.00
2013-2-4,23.1,16.7,9.8,20.1,12.4,2.5,92,83,70,30.07,29.96,10,1,10,0.00
2013-2-5,26.9,19.0,3.9,22.7,14.4,-0.1,92,82,71,30.13,29.82,10,2,12,0.00
2013-2-6,34.4,23.8,5.6,29.4,18.2,3.5,93,80,61,30.28,30.13,6,1,8,0.00
2013-2-7,33.4,32.1,25.6,32.1,30.1,24.6,97,93,84,30.16,29.92,6,1,12,0.02
2013-2-8,26.8,23.2,17.8,24.4,20.9,15.9,96,91,86,30.42,30.01,5,1,11,0.00
2013-2-9,32.0,21.9,9.9,27.1,19.4,8.0,97,90,80,30.44,30.13,7,0,10,0.00
2013-2-10,43.1,35.5,25.4,41.8,33.9,23.7,98,94,83,30.13,29.43,11,3,22,0.26
2013-2-11,41.6,32.2,27.0,36.5,26.6,20.8,89,80,75,29.99,29.44,20,7,26,0.00
2013-2-12,29.1,24.1,20.0,21.2,18.8,16.9,90,80,67,30.11,29.91,11,3,14,0.00
2013-2-13,41.7,29.8,17.0,30.1,24.8,15.6,96,82,61,29.91,29.72,6,2,11,0.00
2013-2-14,36.4,33.3,28.3,33.8,29.3,22.3,93,85,75,29.98,29.60,10,3,18,0.04
2013-2-15,29.0,22.4,14.7,24.8,12.5,5.5,90,66,46,30.20,29.98,8,2,12,0.00
2013-2-16,20.4,12.9,7.3,5.8,2.6,-0.1,81,64,48,30.23,30.15,9,2,13,0.00
2013-2-17,28.3,17.4,4.3,19.4,5.1,-1.5,80,59,36,30.27,30.04,6,1,10,0.00
2013-2-18,48.0,37.5,28.4,42.5,30.8,18.9,97,77,65,30.03,29.39,13,3,15,0.43
2013-2-19,33.0,15.6,8.5,31.5,9.7,0.1,94,77,65,30.17,29.47,17,7,23,0.00
2013-2-20,22.7,14.4,6.1,12.2,5.9,-0.4,79,69,58,30.42,30.18,12,2,16,0.00
2013-2-21,27.1,22.7,17.5,24.6,18.6,12.3,92,84,75,30.45,30.12,13,3,18,0.00
2013-2-22,32.1,28.2,24.7,30.6,26.3,21.6,96,92,83,30.12,29.82,15,3,17,0.00
2013-2-23,30.4,25.5,19.3,24.5,20.2,15.5,89,80,68,29.94,29.86,11,3,14,0.00
2013-2-24,40.7,26.9,17.0,28.0,21.1,14.1,90,79,55,30.17,29.94,6,1,8,0.05
2013-2-25,40.5,29.2,16.5,30.1,23.9,14.7,94,82,59,30.21,30.06,6,1,8,0.00
2013-2-26,34.5,32.7,31.4,31.1,29.3,26.5,98,88,75,30.06,29.59,17,6,21,0.00
2013-2-27,33.4,31.9,31.2,32.9,31.4,30.7,98,98,98,29.74,29.57,9,2,18,0.10
2013-2-28,34.2,30.5,25.7,31.3,27.1,21.3,98,87,78,30.11,29.73,12,3,15,0.12